Montgomery, NY

7:22 AM EDT on October 14, 2019 (GMT -0400)
Orange County

Weather History for KMGJ - July, 2019

Change the Weather History Date:

Sunday, July 21, 2019

  Actual Average (KSWF) Record (KSWF)
Temperature  
Mean Temperature 82 °F -  
Max Temperature 95 °F 80 °F 96 °F (1991)
Min Temperature 72 °F 60 °F 48 °F (1974)
Cooling Degree Days 18    
Growing Degree Days 32 (Base 50)    
Moisture  
Dew Point 73 °F    
Average Humidity 78    
Maximum Humidity 97    
Minimum Humidity 46    
Precipitation  
Precipitation 0.19 in - - ()
Sea Level Pressure  
Sea Level Pressure 29.79 in    
Wind  
Wind Speed 5 mph (SW)    
Max Wind Speed 15 mph    
Max Gust Speed 21 mph    
Visibility 9 miles    
Events Rain , Thunderstorm    
Averages and records for this station are not official NWS values.
T = Trace of Precipitation, MM = Missing Value Source: NWS Daily Summary

Daily Weather History Graph

Daily Weather History Graph

Search for Another Location

Airport or City:

Astronomy

Jul. 21, 2019 Rise Set
Actual Time 5:41 AM EDT 8:25 PM EDT
Civil Twilight 5:08 AM EDT 8:57 PM EDT
Nautical Twilight 4:28 AM EDT 9:38 PM EDT
Astronomical Twilight 3:41 AM EDT 10:24 PM EDT
Moon 11:15 PM EDT (7/21) 10:01 AM EDT (7/21)
Length of Visible Light 15h 48m
Length of Day
14h 44m
Waning Gibbous, 80% of the Moon is Illuminated
Jul 21
Waning Gibbous
Jul 24
Last Quarter
Jul 31
New
Aug 7
First Quarter
Aug 15
Full

Hourly Weather History & Observations

Time (EDT) Temp. Heat Index Dew Point Humidity Pressure Visibility Wind Dir Wind Speed Gust Speed Precip Events Conditions
12:54 AM 73.0 °F - 71.1 °F 93% 29.80 in 10.0 mi Calm Calm - N/A   Clear
1:54 AM 72.0 °F - 70.0 °F 93% 29.79 in 10.0 mi South 4.6 mph - N/A   Clear
2:54 AM 72.0 °F - 71.1 °F 97% 29.77 in 10.0 mi Calm Calm - N/A   Clear
3:54 AM 72.0 °F - 71.1 °F 97% 29.76 in 10.0 mi SSW 5.8 mph - N/A   Clear
4:54 AM 73.0 °F - 71.1 °F 93% 29.75 in 10.0 mi SSW 4.6 mph - N/A   Clear
5:54 AM 73.0 °F - 72.0 °F 96% 29.77 in 10.0 mi SW 4.6 mph - N/A   Clear
6:54 AM 77.0 °F - 73.0 °F 88% 29.81 in 10.0 mi WSW 6.9 mph - N/A   Clear
7:54 AM 80.1 °F 84.2 °F 73.0 °F 79% 29.81 in 10.0 mi SSW 8.1 mph - N/A   Clear
8:54 AM 82.9 °F 89.4 °F 73.9 °F 74% 29.82 in 10.0 mi SW 6.9 mph - N/A   Clear
9:54 AM 86.0 °F 93.8 °F 73.9 °F 67% 29.80 in 10.0 mi WSW 8.1 mph - N/A   Clear
10:54 AM 86.0 °F 93.8 °F 73.9 °F 67% 29.80 in 10.0 mi WSW 8.1 mph - N/A   Clear
11:54 AM 90.0 °F 97.9 °F 73.0 °F 57% 29.79 in 10.0 mi WSW 9.2 mph - N/A   Clear
12:54 PM 91.0 °F 98.2 °F 72.0 °F 53% 29.78 in 10.0 mi WSW 15.0 mph - N/A   Clear
1:54 PM 93.9 °F 100.3 °F 70.0 °F 46% 29.78 in 10.0 mi WNW 12.7 mph 20.7 mph N/A   Partly Cloudy
2:54 PM 93.0 °F 100.1 °F 71.1 °F 49% 29.77 in 10.0 mi WSW 8.1 mph 18.4 mph N/A   Partly Cloudy
3:54 PM 93.9 °F 100.8 °F 71.1 °F 47% 29.76 in 10.0 mi West 11.5 mph 19.6 mph N/A   Clear
4:54 PM 93.9 °F 100.8 °F 71.1 °F 47% 29.76 in 10.0 mi West 10.4 mph - N/A   Partly Cloudy
5:54 PM 90.0 °F 96.4 °F 71.1 °F 54% 29.77 in 10.0 mi West 4.6 mph - N/A   Clear
6:09 PM 81.0 °F 85.8 °F 73.0 °F 77% 29.81 in 1.8 mi NW 13.8 mph 20.7 mph 0.15 in Rain Heavy Rain
6:19 PM 79.0 °F - 73.9 °F 84% 29.79 in 3.0 mi North 5.8 mph - 0.19 in Rain , Thunderstorm Light Rain
6:50 PM 78.8 °F - 75.2 °F 89% 29.79 in 10.0 mi SSE 3.5 mph - 0.19 in   Partly Cloudy
6:54 PM 78.1 °F - 75.9 °F 93% 29.78 in 10.0 mi SSE 3.5 mph - 0.19 in   Partly Cloudy
7:54 PM 78.1 °F - 75.0 °F 90% 29.81 in 10.0 mi South 5.8 mph - N/A   Clear
8:54 PM 75.9 °F - 75.0 °F 97% 29.83 in 10.0 mi Calm Calm - N/A   Clear
9:54 PM 78.1 °F - 73.0 °F 84% 29.85 in 10.0 mi NW 4.6 mph - N/A   Clear
10:54 PM 75.9 °F - 72.0 °F 87% 29.85 in 10.0 mi Calm Calm - N/A   Clear
11:54 PM 73.0 °F - 72.0 °F 96% 29.84 in 10.0 mi Calm Calm - N/A   Clear